Location: Kellogg
(38.0159°N, 90.0546°W)
Time: 16:11:25
(UTC+00:00)

Transit 2A - Pass Details

Date: 20 September 2024
Orbit: 590 x 960 km, 66.7° (Epoch: 07 October)

Event Time Altitude Azimuth Distance (km) Brightness Sun altitude
Rises 23:19:07 0° 217° (SW) 3,387 10.0 7.1°
Reaches altitude 10° 23:21:32 10° 221° (SW) 2,505 9.5 6.6°
Maximum altitude 23:27:20 61° 302° (WNW) 1,037 7.2 5.5°
Drops below altitude 10° 23:33:35 10° 22° (NNE) 2,683 8.6 4.3°
Sets 23:36:14 0° 26° (NNE) 3,645 9.2 3.7°
